Weather History for Bartlesville, OK

Change the Weather History Date:

Sunday, October 28, 2012

  Actual Average Record
Temperature  
Mean Temperature 40 °F -  
Max Temperature 57 °F 71 °F 86 °F (1966)
Min Temperature 24 °F 44 °F 22 °F (1957)
Degree Days  
Heating Degree Days 24    
Moisture  
Dew Point 27 °F    
Average Humidity 73    
Maximum Humidity 100    
Minimum Humidity 27    
Precipitation  
Precipitation 0.00 in - - ()
Sea Level Pressure  
Sea Level Pressure 30.31 in    
Wind  
Wind Speed 1 mph (East)    
Max Wind Speed 7 mph    
Max Gust Speed -    
Visibility 10 miles    
Events      
Averages and records for this station are not official NWS values.
T = Trace of Precipitation, MM = Missing Value Source: NWS Daily Summary

Daily Weather History Graph

Daily Weather History Graph

Search for Another Location

Airport:

Trip Planner

Search our weather history database for the weather conditions in past years. The results will help you decide how hot, cold, wet, or windy it might be!

Date:

Astronomy

Oct. 28, 2012 Rise Set
Actual Time 7:44 AM CDT 6:30 PM CDT
Civil Twilight 7:17 AM CDT 6:57 PM CDT
Nautical Twilight 6:47 AM CDT 7:27 PM CDT
Astronomical Twilight 6:17 AM CDT 7:57 PM CDT
Moon 5:49 PM CDT (10/28) 6:39 AM CDT (10/28)
Length of Visible Light 11h 39m
Length of Day
10h 46m
Waxing Gibbous, 99% of the Moon is Illuminated
Oct 28
Waxing Gibbous
Oct 29
Full
Nov 6
Last Quarter
Nov 13
New
Nov 20
First Quarter

Hourly Weather History & Observations

Time (CDT) Temp. Windchill Dew Point Humidity Pressure Visibility Wind Dir Wind Speed Gust Speed Precip Events Conditions
12:53 AM 28.0 °F - 27.0 °F 96% 30.31 in 10.0 mi Calm Calm - N/A   Clear
1:53 AM 28.0 °F - 26.1 °F 92% 30.32 in 10.0 mi Calm Calm - N/A   Clear
2:53 AM 28.0 °F - 26.1 °F 92% 30.30 in 10.0 mi Calm Calm - N/A   Clear
3:53 AM 25.0 °F - 25.0 °F 100% 30.30 in 10.0 mi Calm Calm - N/A   Clear
4:53 AM 26.1 °F - 24.1 °F 92% 30.31 in 10.0 mi Calm Calm - N/A   Clear
5:53 AM 26.1 °F - 24.1 °F 92% 30.32 in 9.0 mi Calm Calm - N/A   Clear
6:53 AM 24.1 °F - 23.0 °F 96% 30.34 in 9.0 mi Calm Calm - N/A   Clear
7:53 AM 25.0 °F - 23.0 °F 92% 30.35 in 8.0 mi Calm Calm - N/A   Clear
8:53 AM 30.0 °F - 28.0 °F 92% 30.37 in 9.0 mi Calm Calm - N/A   Clear
9:53 AM 37.9 °F - 33.1 °F 83% 30.37 in 10.0 mi Calm Calm - N/A   Clear
10:53 AM 44.1 °F 41.5 °F 30.9 °F 60% 30.36 in 10.0 mi East 4.6 mph - N/A   Clear
11:53 AM 48.9 °F - 30.0 °F 48% 30.35 in 10.0 mi ENE 6.9 mph - N/A   Clear
12:53 PM 52.0 °F - 28.9 °F 41% 30.32 in 10.0 mi Variable 3.5 mph - N/A   Clear
1:53 PM 54.0 °F - 27.0 °F 35% 30.29 in 10.0 mi East 5.8 mph - N/A   Clear
2:53 PM 55.0 °F - 25.0 °F 31% 30.27 in 10.0 mi Calm Calm - N/A   Clear
4:53 PM 57.0 °F - 23.0 °F 27% 30.25 in 10.0 mi Calm Calm - N/A   Clear
5:53 PM 53.1 °F - 25.0 °F 34% 30.25 in 10.0 mi Calm Calm - N/A   Clear
6:53 PM 41.0 °F - 30.9 °F 67% 30.25 in 10.0 mi Calm Calm - N/A   Clear
7:53 PM 37.9 °F - 30.0 °F 73% 30.26 in 10.0 mi Calm Calm - N/A   Clear
8:53 PM 36.0 °F - 30.0 °F 79% 30.27 in 10.0 mi Calm Calm - N/A   Clear
9:53 PM 33.1 °F - 28.9 °F 85% 30.28 in 10.0 mi Calm Calm - N/A   Clear
10:53 PM 32.0 °F - 28.9 °F 88% 30.29 in 10.0 mi Calm Calm - N/A   Clear
11:53 PM 32.0 °F - 28.9 °F 88% 30.29 in 10.0 mi Calm Calm - N/A   Clear